Regional Weather Roundup
Issued by NWS

Home | Current Version | Previous Version | Graphics & Text | Print | Product List | Glossary Off
Versions: 1 2 3 4 5 6 7 8 9 10 11 12 13 14 15 16 17 18 19 20 21 22 23 24 25 26 27 28 29 30 31 32 33 34 35 36 37 38 39 40 41 42 43 44 45 46 47 48 49 50

000
ASUS43 KLSX 252157
RWRMO

WEATHER SUMMARY FOR MISSOURI
NATIONAL WEATHER SERVICE SPRINGFIELD MO
400 PM CST SAT FEB 25 2017

NOTE: "FAIR" INDICATES FEW OR NO CLOUDS BELOW 12,000 FEET WITH NO
       SIGNIFICANT WEATHER AND/OR OBSTRUCTIONS TO VISIBILITY.
       CURRENT SKY AND/OR WEATHER CONDITIONS ARE NOT AVAILABLE FOR
       CHILLICOTHE AND FARMINGTON.

MOZ001>031-035>038-043-044-053-054-252300-
...NORTHERN AND WESTERN MISSOURI...

CITY           SKY/WX    TMP DP  RH WIND       PRES   REMARKS
KANSAS CTY INT MOSUNNY   40  10  29 SW12      30.09F
LEE`S SUMMIT   SUNNY     42  10  27 MISG      30.10F
ST JOSEPH      SUNNY     39  15  37 W7        30.09F
CHILLICOTHE      N/A     39  12  33 VRB5      30.11F

$$
MOZ066>068-077>081-088>096-101>105-252300-
...SOUTHWEST MISSOURI...

CITY           SKY/WX    TMP DP  RH WIND       PRES   REMARKS
SPRINGFIELD    SUNNY     44  13  28 NW5       30.10F
JOPLIN         SUNNY     43  13  29 VRB5      30.13F
BRANSON        SUNNY     43  12  28 N10       30.12F

$$
MOZ032>034-039>042-045>050-055>058-069>072-252300-
...CENTRAL MISSOURI...

CITY           SKY/WX    TMP DP  RH WIND       PRES   REMARKS
COLUMBIA       NOT AVBL
JEFFERSON CITY SUNNY     41   9  26 W9        30.12S
ROLLA          SUNNY     40  10  29 NW10      30.09S
SEDALIA        SUNNY     44   8  23 N9        30.12S
WARRENSBURG    SUNNY     41   9  26 NW5       30.11F

$$
MOZ051-052-059>065-252300-
...EAST CENTRAL MISSOURI...

CITY           SKY/WX    TMP DP  RH WIND       PRES   REMARKS
ST LOUIS INTL  MOSUNNY   41  12  30 W16G28    30.09S

$$
MOZ072>076-082>087-097>100-106>115-252300-
...SOUTH CENTRAL AND SOUTHEAST MISSOURI...

CITY           SKY/WX    TMP DP  RH WIND       PRES   REMARKS
CAPE GIRARDEAU SUNNY     44  13  28 W13       30.09S
POPLAR BLUFF   SUNNY     46  14  27 NW14G22   30.10S
WEST PLAINS    SUNNY     45  11  25 NW8       30.10S

$$



USA.gov is the U.S. government's official web portal to all federal, state and local government web resources and services.